When you browse on this site, cookies collect data to enhance your experience and personalize the content and advertising you see.
Visit our Privacy Policy to learn more. By continuing to use the site, you agree to this use of cookies and data.
  • In Portugal
  • List of Countries
  • For 7 days
  • Water Temperature
  • Satellite Maps
  • Weather Map
  • Weather Widgets
  • user-avatar
    Login

    Hourly Weather Ovsyankino

    Today, 17 June, Monday

    Time Temperature Precipitation Wind Pressure Humidity
    00:00 +15°C° 0 mm 1 mps 743 mmHg 90%
    01:00 +14°C° 0 mm 1 mps 743 mmHg 92%
    02:00 +15°C° 0 mm 1 mps 743 mmHg 94%
    03:00 +15°C° 0 mm 1 mps 743 mmHg 90%
    04:00 +16°C° 0 mm 1 mps 743 mmHg 87%
    05:00 +18°C° 0 mm 1 mps 743 mmHg 84%
    06:00 +18°C° 0.2 mm 1 mps 743 mmHg 86%
    07:00 +17°C° 0.2 mm 2 mps 743 mmHg 87%
    08:00 +18°C° 0 mm 2 mps 743 mmHg 86%
    09:00 +18°C° 0.1 mm 2 mps 743 mmHg 84%
    10:00 +19°C° 0.1 mm 2 mps 743 mmHg 82%
    11:00 +20°C° 0.1 mm 2 mps 743 mmHg 80%
    12:00 +21°C° 0.1 mm 2 mps 742 mmHg 74%
    13:00 +23°C° 0.1 mm 2 mps 742 mmHg 68%
    14:00 +24°C° 0.1 mm 2 mps 742 mmHg 62%
    15:00 +24°C° 0 mm 2 mps 742 mmHg 64%
    16:00 +23°C° 0 mm 1 mps 742 mmHg 66%
    17:00 +23°C° 0 mm 1 mps 742 mmHg 67%
    18:00 +22°C° 0 mm 1 mps 741 mmHg 73%
    19:00 +21°C° 0 mm 1 mps 741 mmHg 79%
    20:00 +19°C° 0 mm 1 mps 741 mmHg 85%
    21:00 +18°C° 0 mm 1 mps 741 mmHg 86%
    22:00 +18°C° 0 mm 1 mps 741 mmHg 87%
    23:00 +16°C° 0 mm 1 mps 742 mmHg 88%

    Tomorrow, 18 June, Tuesday

    Time Temperature Precipitation Wind Pressure Humidity
    00:00 +15°C° 0 mm 1 mps 742 mmHg 90%
    01:00 +15°C° 0 mm 1 mps 742 mmHg 92%
    02:00 +15°C° 0 mm 1 mps 742 mmHg 93%
    03:00 +15°C° 0 mm 1 mps 742 mmHg 92%
    04:00 +16°C° 0 mm 1 mps 742 mmHg 90%
    05:00 +16°C° 0 mm 1 mps 742 mmHg 88%
    06:00 +18°C° 0 mm 2 mps 743 mmHg 78%
    07:00 +20°C° 0 mm 2 mps 743 mmHg 69%
    08:00 +23°C° 0 mm 2 mps 743 mmHg 59%
    09:00 +24°C° 0 mm 3 mps 743 mmHg 55%
    10:00 +25°C° 0 mm 3 mps 744 mmHg 52%
    11:00 +26°C° 0 mm 3 mps 744 mmHg 48%
    12:00 +26°C° 0 mm 4 mps 744 mmHg 46%
    13:00 +26°C° 0 mm 4 mps 743 mmHg 44%
    14:00 +27°C° 0 mm 4 mps 743 mmHg 41%
    15:00 +26°C° 0 mm 4 mps 743 mmHg 42%
    16:00 +25°C° 0 mm 4 mps 744 mmHg 43%
    17:00 +25°C° 0 mm 4 mps 744 mmHg 43%
    18:00 +22°C° 0 mm 3 mps 744 mmHg 52%
    19:00 +20°C° 0 mm 2 mps 744 mmHg 61%
    20:00 +18°C° 0 mm 2 mps 744 mmHg 70%
    21:00 +17°C° 0 mm 2 mps 744 mmHg 72%
    22:00 +16°C° 0 mm 2 mps 744 mmHg 74%
    23:00 +15°C° 0 mm 2 mps 745 mmHg 76%

    Day after tomorrow, 19 June, Wednesday

    Time Temperature Precipitation Wind Pressure Humidity
    00:00 +14°C° 0 mm 1 mps 745 mmHg 77%
    01:00 +14°C° 0 mm 1 mps 745 mmHg 79%
    02:00 +13°C° 0 mm 1 mps 745 mmHg 81%
    03:00 +14°C° 0 mm 1 mps 745 mmHg 81%
    04:00 +15°C° 0 mm 1 mps 745 mmHg 81%
    05:00 +15°C° 0 mm 1 mps 746 mmHg 80%
    06:00 +18°C° 0 mm 1 mps 746 mmHg 73%
    07:00 +21°C° 0 mm 1 mps 746 mmHg 65%
    08:00 +23°C° 0 mm 1 mps 746 mmHg 58%
    09:00 +24°C° 0 mm 1 mps 746 mmHg 53%
    10:00 +26°C° 0 mm 1 mps 746 mmHg 47%
    11:00 +27°C° 0 mm 1 mps 746 mmHg 42%
    12:00 +28°C° 0 mm 1 mps 746 mmHg 39%
    13:00 +28°C° 0 mm 1 mps 746 mmHg 37%
    14:00 +29°C° 0 mm 1 mps 746 mmHg 34%
    15:00 +28°C° 0 mm 1 mps 745 mmHg 36%
    16:00 +28°C° 0 mm 1 mps 745 mmHg 38%
    17:00 +28°C° 0 mm 1 mps 745 mmHg 41%
    18:00 +25°C° 0 mm 1 mps 745 mmHg 49%
    19:00 +23°C° 0 mm 1 mps 745 mmHg 57%
    20:00 +21°C° 0 mm 1 mps 745 mmHg 66%
    21:00 +20°C° 0 mm 1 mps 745 mmHg 68%
    22:00 +18°C° 0 mm 1 mps 745 mmHg 69%
    23:00 +16°C° 0 mm 1 mps 745 mmHg 71%

    20 June, Thursday

    Time Temperature Precipitation Wind Pressure Humidity
    00:00 +16°C° 0 mm 1 mps 745 mmHg 73%
    01:00 +15°C° 0 mm 1 mps 745 mmHg 75%
    02:00 +15°C° 0 mm 1 mps 745 mmHg 77%
    03:00 +15°C° 0 mm 1 mps 745 mmHg 77%
    04:00 +16°C° 0 mm 1 mps 745 mmHg 78%
    05:00 +18°C° 0 mm 1 mps 746 mmHg 79%
    06:00 +20°C° 0 mm 1 mps 746 mmHg 72%
    07:00 +22°C° 0 mm 1 mps 746 mmHg 65%
    08:00 +24°C° 0 mm 1 mps 746 mmHg 59%
    09:00 +26°C° 0 mm 2 mps 746 mmHg 53%
    10:00 +27°C° 0 mm 2 mps 746 mmHg 48%
    11:00 +28°C° 0 mm 3 mps 746 mmHg 42%
    12:00 +28°C° 0 mm 3 mps 745 mmHg 42%
    13:00 +29°C° 0 mm 3 mps 745 mmHg 41%
    14:00 +29°C° 0 mm 3 mps 745 mmHg 40%
    15:00 +29°C° 0 mm 3 mps 744 mmHg 43%
    16:00 +28°C° 0 mm 3 mps 744 mmHg 46%
    17:00 +28°C° 0 mm 3 mps 744 mmHg 48%
    18:00 +26°C° 0 mm 3 mps 744 mmHg 57%
    19:00 +24°C° 0 mm 2 mps 744 mmHg 66%
    20:00 +21°C° 0 mm 2 mps 744 mmHg 74%
    21:00 +20°C° 0 mm 2 mps 744 mmHg 77%
    22:00 +19°C° 0 mm 2 mps 744 mmHg 80%
    23:00 +19°C° 0 mm 2 mps 744 mmHg 83%

    21 June, Friday

    Time Temperature Precipitation Wind Pressure Humidity
    00:00 +19°C° 0 mm 2 mps 744 mmHg 83%
    01:00 +19°C° 0 mm 2 mps 744 mmHg 84%
    02:00 +19°C° 0 mm 2 mps 744 mmHg 85%
    03:00 +18°C° 0.4 mm 2 mps 744 mmHg 87%
    04:00 +18°C° 0.4 mm 2 mps 744 mmHg 89%
    05:00 +17°C° 0.4 mm 2 mps 744 mmHg 92%
    06:00 +17°C° 0.9 mm 2 mps 744 mmHg 93%
    07:00 +17°C° 0.9 mm 2 mps 744 mmHg 94%
    08:00 +17°C° 0.9 mm 2 mps 744 mmHg 95%
    09:00 +20°C° 0.4 mm 3 mps 744 mmHg 91%
    10:00 +22°C° 0.4 mm 3 mps 744 mmHg 87%
    11:00 +25°C° 0.4 mm 4 mps 744 mmHg 83%
    12:00 +25°C° 1 mm 4 mps 744 mmHg 83%
    13:00 +25°C° 1 mm 4 mps 744 mmHg 84%
    14:00 +25°C° 1 mm 4 mps 743 mmHg 85%
    15:00 +25°C° 0.4 mm 3 mps 743 mmHg 85%
    16:00 +24°C° 0.4 mm 3 mps 743 mmHg 86%
    17:00 +24°C° 0.4 mm 2 mps 743 mmHg 86%
    18:00 +23°C° 0.4 mm 2 mps 743 mmHg 88%
    19:00 +23°C° 0.4 mm 2 mps 743 mmHg 91%
    20:00 +21°C° 0.4 mm 2 mps 743 mmHg 93%
    21:00 +20°C° 0.1 mm 2 mps 743 mmHg 94%
    22:00 +20°C° 0.1 mm 2 mps 743 mmHg 95%
    23:00 +19°C° 0.1 mm 2 mps 743 mmHg 96%

    22 June, Saturday

    Time Temperature Precipitation Wind Pressure Humidity
    00:00 +19°C° 0 mm 2 mps 743 mmHg 96%
    01:00 +18°C° 0 mm 2 mps 743 mmHg 96%
    02:00 +18°C° 0 mm 2 mps 743 mmHg 97%
    03:00 +18°C° 0 mm 3 mps 743 mmHg 96%
    04:00 +19°C° 0 mm 3 mps 742 mmHg 95%
    05:00 +19°C° 0 mm 3 mps 742 mmHg 95%
    06:00 +20°C° 0 mm 3 mps 742 mmHg 88%
    07:00 +22°C° 0 mm 4 mps 742 mmHg 81%
    08:00 +25°C° 0 mm 4 mps 742 mmHg 74%
    09:00 +26°C° 0.1 mm 4 mps 742 mmHg 70%
    10:00 +28°C° 0.1 mm 4 mps 742 mmHg 65%
    11:00 +29°C° 0.1 mm 4 mps 742 mmHg 61%
    12:00 +29°C° 0.6 mm 4 mps 742 mmHg 63%
    13:00 +29°C° 0.6 mm 4 mps 742 mmHg 65%
    14:00 +28°C° 0.6 mm 4 mps 742 mmHg 67%
    15:00 +28°C° 0.4 mm 4 mps 742 mmHg 70%
    16:00 +27°C° 0.4 mm 3 mps 742 mmHg 73%
    17:00 +27°C° 0.4 mm 3 mps 742 mmHg 76%
    18:00 +25°C° 0.6 mm 2 mps 742 mmHg 82%
    19:00 +24°C° 0.6 mm 2 mps 743 mmHg 88%
    20:00 +22°C° 0.6 mm 1 mps 743 mmHg 94%
    21:00 +22°C° 0.1 mm 1 mps 743 mmHg 95%
    22:00 +21°C° 0.1 mm 1 mps 743 mmHg 96%
    23:00 +20°C° 0.1 mm 1 mps 743 mmHg 97%
    Show more